IK5NLA Weather Reports


time (UTC)temp
F
wind
direction
speed
knots
gust
knots
rain 1hr
in
rain 24hr
in
rain mn
in
humidity
%
barometer
mb
20260507192721 56 298 3.5 5.2 0.00 0.00 0.00 61 1013.2
20260507192613 56 299 3.5 7.0 0.00 0.00 0.00 61 1013.2
20260507192526 56 299 3.5 7.0 0.00 0.00 0.00 61 1013.2
20260507192423 55 299 3.5 7.0 0.00 0.00 0.00 61 1013.2
20260507192334 55 299 3.5 7.0 0.00 0.00 0.00 63 1013.2
20260507192226 55 299 4.3 7.0 0.00 0.00 0.00 62 1013.2
20260507192139 55 299 4.3 7.0 0.00 0.00 0.00 63 1013.2
20260507192051 55 299 5.2 7.0 0.00 0.00 0.00 63 1013.2
20260507191921 55 297 4.3 7.0 0.00 0.00 0.00 63 1013.2
20260507191833 55 298 5.2 7.0 0.00 0.00 0.00 62 1013.2
20260507191748 55 307 6.1 7.0 0.00 0.00 0.00 61 1013.2
20260507191619 55 304 6.1 7.0 0.00 0.00 0.00 60 1013.1
20260507191531 55 306 6.1 7.0 0.00 0.00 0.00 61 1013.1
20260507191422 55 304 6.1 7.0 0.00 0.00 0.00 61 1013.1
20260507191315 56 306 6.1 7.0 0.00 0.00 0.00 62 1013.1
20260507191227 56 310 5.2 7.0 0.00 0.00 0.00 61 1013.1
20260507191124 56 307 3.5 7.0 0.00 0.00 0.00 61 1013.1
20260507191015 56 307 3.5 7.0 0.00 0.00 0.00 62 1013.1
20260507190928 56 323 3.5 7.0 0.00 0.00 0.00 62 1013.1
20260507190820 56 331 5.2 7.0 0.00 0.00 0.00 63 1013.1
20260507190715 56 309 5.2 7.0 0.00 0.00 0.00 62 1013.0
20260507190647 56 312 5.2 7.0 0.00 0.00 0.00 62 1013.0
20260507190518 57 300 4.3 6.1 0.00 0.00 0.00 62 1013.0
20260507190429 57 296 3.5 6.1 0.00 0.00 0.00 60 1012.9
20260507190342 57 291 2.6 6.1 0.00 0.00 0.00 60 1012.9
20260507190213 57 284 1.7 5.2 0.00 0.00 0.00 60 1012.9
20260507190145 57 284 1.7 3.5 0.00 0.00 0.00 61 1012.9
20260507190021 57 284 1.7 3.5 0.00 0.00 0.00 60 1012.9
20260507185912 57 284 1.7 3.5 0.00 0.00 0.00 60 1012.9
20260507185825 57 284 2.6 4.3 0.00 0.00 0.00 60 1012.9
20260507185737 57 284 1.7 4.3 0.00 0.00 0.00 59 1012.9
20260507185648 57 284 1.7 4.3 0.00 0.00 0.00 59 1012.9
20260507185539 57 284 0.9 4.3 0.00 0.00 0.00 59 1012.9
20260507185414 57 284 0.9 4.3 0.00 0.00 0.00 58 1012.9
20260507185326 57 284 0.9 4.3 0.00 0.00 0.00 56 1012.9
20260507185218 58 284 1.7 4.3 0.00 0.00 0.00 56 1012.9
20260507185131 58 284 1.7 4.3 0.00 0.00 0.00 56 1012.9
20260507185023 58 284 2.6 6.1 0.00 0.00 0.00 56 1012.8
20260507184915 58 284 2.6 6.1 0.00 0.00 0.00 56 1012.9
20260507184831 58 284 2.6 6.1 0.00 0.00 0.00 57 1012.9
20260507184723 58 279 2.6 6.1 0.00 0.00 0.00 56 1012.8
20260507184613 58 279 3.5 7.0 0.00 0.00 0.00 56 1012.9
20260507184525 58 279 3.5 7.0 0.00 0.00 0.00 57 1012.9
20260507184438 58 279 3.5 7.0 0.00 0.00 0.00 57 1012.8
20260507184312 58 278 3.5 7.0 0.00 0.00 0.00 58 1012.9
20260507184225 58 278 4.3 7.0 0.00 0.00 0.00 59 1012.9
20260507184117 57 278 4.3 7.0 0.00 0.00 0.00 61 1012.8
20260507184030 57 287 5.2 7.0 0.00 0.00 0.00 62 1012.8
20260507183941 57 294 5.2 7.0 0.00 0.00 0.00 63 1012.8
20260507183813 57 283 5.2 7.0 0.00 0.00 0.00 64 1012.8
20260507183730 57 285 6.1 7.0 0.00 0.00 0.00 65 1012.8
20260507183622 58 287 6.1 7.0 0.00 0.00 0.00 65 1012.9
20260507183513 58 286 5.2 6.1 0.00 0.00 0.00 65 1012.8
20260507183426 58 286 5.2 6.1 0.00 0.00 0.00 64 1012.8
20260507183318 58 283 5.2 6.1 0.00 0.00 0.00 63 1012.8
20260507183212 58 283 5.2 6.1 0.00 0.00 0.00 63 1012.8
20260507183146 58 282 5.2 7.0 0.00 0.00 0.00 63 1012.8
20260507183016 59 284 5.2 7.0 0.00 0.00 0.00 63 1012.7
20260507182928 59 284 5.2 7.0 0.00 0.00 0.00 62 1012.7
20260507182819 59 284 4.3 7.0 0.00 0.00 0.00 62 1012.7
20260507182714 59 277 4.3 7.0 0.00 0.00 0.00 61 1012.8
20260507182648 59 276 3.5 7.0 0.00 0.00 0.00 61 1012.8
20260507182538 59 274 3.5 7.0 0.00 0.00 0.00 61 1012.8
20260507182429 59 275 3.5 7.0 0.00 0.00 0.00 61 1012.8
20260507182319 59 275 4.3 7.8 0.00 0.00 0.00 61 1012.8
20260507182231 59 275 4.3 7.8 0.00 0.00 0.00 61 1012.8
20260507182121 59 268 4.3 7.8 0.00 0.00 0.00 61 1012.8
20260507182038 59 269 4.3 7.8 0.00 0.00 0.00 61 1012.9
20260507181929 59 263 4.3 7.8 0.00 0.00 0.00 62 1012.9
20260507181821 59 265 4.3 7.8 0.00 0.00 0.00 62 1012.9
20260507181731 59 265 5.2 7.8 0.00 0.00 0.00 62 1012.8
20260507181622 59 279 4.3 8.7 0.00 0.00 0.00 62 1012.8
20260507181515 59 266 5.2 8.7 0.00 0.00 0.00 62 1012.8
20260507181431 59 269 5.2 8.7 0.00 0.00 0.00 62 1012.8
20260507181322 59 279 5.2 8.7 0.00 0.00 0.00 63 1012.8
20260507181215 59 269 5.2 8.7 0.00 0.00 0.00 63 1012.8
20260507181127 59 271 5.2 8.7 0.00 0.00 0.00 63 1012.8
20260507181039 59 275 5.2 8.7 0.00 0.00 0.00 63 1012.8
20260507180933 59 265 5.2 8.7 0.00 0.00 0.00 63 1012.7
20260507180820 59 269 6.1 8.7 0.00 0.00 0.00 63 1012.8
20260507180730 59 266 6.1 8.7 0.00 0.00 0.00 63 1012.7
20260507180623 59 267 5.2 7.0 0.00 0.00 0.00 64 1012.8
20260507180513 59 265 5.2 7.0 0.00 0.00 0.00 65 1012.8
20260507180446 59 260 4.3 7.0 0.00 0.00 0.00 65 1012.8
20260507180314 59 254 5.2 7.8 0.00 0.00 0.00 65 1012.8
20260507180226 59 255 4.3 7.8 0.00 0.00 0.00 64 1012.8
20260507180114 59 257 3.5 8.7 0.00 0.00 0.00 67 1012.8
20260507180027 59 271 2.6 8.7 0.00 0.00 0.00 65 1012.8
20260507175918 59 279 3.5 8.7 0.00 0.00 0.00 64 1012.7
20260507175829 59 279 4.3 8.7 0.00 0.00 0.00 64 1012.7
20260507175719 59 271 4.3 8.7 0.00 0.00 0.00 64 1012.7
20260507175616 59 271 4.3 8.7 0.00 0.00 0.00 64 1012.7
20260507175549 60 273 4.3 8.7 0.00 0.00 0.00 64 1012.7
20260507175417 60 273 5.2 8.7 0.00 0.00 0.00 64 1012.6
20260507175326 59 275 6.1 8.7 0.00 0.00 0.00 65 1012.6
20260507175217 59 260 6.1 8.7 0.00 0.00 0.00 65 1012.6
20260507175127 59 272 6.1 8.7 0.00 0.00 0.00 65 1012.6
20260507175023 59 275 5.2 8.7 0.00 0.00 0.00 66 1012.6
20260507174913 59 273 5.2 8.7 0.00 0.00 0.00 66 1012.6
20260507174824 59 266 4.3 8.7 0.00 0.00 0.00 67 1012.6
20260507174736 59 279 4.3 8.7 0.00 0.00 0.00 67 1012.5
20260507174626 59 268 4.3 8.7 0.00 0.00 0.00 68 1012.5
20260507174539 60 261 5.2 10.4 0.00 0.00 0.00 67 1012.5
20260507174413 60 262 6.1 10.4 0.00 0.00 0.00 67 1012.6
20260507174324 60 260 6.1 10.4 0.00 0.00 0.00 67 1012.6
20260507174216 60 266 6.1 10.4 0.00 0.00 0.00 67 1012.6
20260507174127 60 290 5.2 10.4 0.00 0.00 0.00 67 1012.6
20260507174020 60 259 4.3 10.4 0.00 0.00 0.00 67 1012.6
20260507173914 60 271 5.2 10.4 0.00 0.00 0.00 67 1012.5
20260507173826 60 273 5.2 10.4 0.00 0.00 0.00 67 1012.5
20260507173718 60 273 7.0 10.4 0.00 0.00 0.00 67 1012.6
20260507173630 60 267 7.0 10.4 0.00 0.00 0.00 67 1012.6
20260507173542 60 266 6.1 10.4 0.00 0.00 0.00 67 1012.6
20260507173417 60 271 6.1 10.4 0.00 0.00 0.00 66 1012.6
20260507173327 60 270 6.1 10.4 0.00 0.00 0.00 66 1012.6
20260507173218 60 254 7.0 10.4 0.00 0.00 0.00 66 1012.5
20260507173130 60 275 7.0 10.4 0.00 0.00 0.00 66 1012.4
20260507173022 60 270 7.0 10.4 0.00 0.00 0.00 66 1012.4
20260507172953 60 267 7.0 10.4 0.00 0.00 0.00 67 1012.4
20260507172827 60 257 6.1 9.6 0.00 0.00 0.00 67 1012.4
20260507172719 60 273 6.1 9.6 0.00 0.00 0.00 67 1012.4
20260507172623 60 259 6.1 9.6 0.00 0.00 0.00 66 1012.3
20260507172516 60 265 6.1 10.4 0.00 0.00 0.00 66 1012.3
20260507172446 60 243 5.2 10.4 0.00 0.00 0.00 67 1012.3
20260507172315 60 257 4.3 10.4 0.00 0.00 0.00 66 1012.2
20260507172231 60 267 5.2 10.4 0.00 0.00 0.00 66 1012.2
20260507172142 60 271 4.3 10.4 0.00 0.00 0.00 66 1012.3
20260507172012 60 263 5.2 10.4 0.00 0.00 0.00 66 1012.3
20260507171925 60 259 6.1 10.4 0.00 0.00 0.00 66 1012.3
20260507171817 60 260 7.0 10.4 0.00 0.00 0.00 66 1012.3
20260507171749 60 261 6.1 10.4 0.00 0.00 0.00 67 1012.3
20260507171623 60 259 7.0 10.4 0.00 0.00 0.00 67 1012.3
20260507171514 60 273 5.2 9.6 0.00 0.00 0.00 67 1012.3
20260507171423 60 279 4.3 9.6 0.00 0.00 0.00 67 1012.3
20260507171316 60 262 4.3 9.6 0.00 0.00 0.00 67 1012.4
20260507171247 60 251 4.3 9.6 0.00 0.00 0.00 67 1012.4
20260507171115 60 267 4.3 9.6 0.00 0.00 0.00 68 1012.3
20260507171026 60 259 5.2 9.6 0.00 0.00 0.00 66 1012.3
20260507170922 60 302 6.1 9.6 0.00 0.00 0.00 66 1012.4
20260507170813 60 261 6.1 9.6 0.00 0.00 0.00 66 1012.4
20260507170723 60 236 6.1 9.6 0.00 0.00 0.00 66 1012.4
20260507170614 60 271 4.3 9.6 0.00 0.00 0.00 67 1012.4
20260507170525 60 248 4.3 7.8 0.00 0.00 0.00 66 1012.4
20260507170421 60 207 5.2 7.8 0.00 0.00 0.00 66 1012.4
20260507170331 60 225 5.2 8.7 0.00 0.00 0.00 67 1012.4
20260507170222 60 281 4.3 8.7 0.00 0.00 0.00 68 1012.4
20260507170113 60 222 4.3 9.6 0.00 0.00 0.00 67 1012.4
20260507170025 61 257 4.3 9.6 0.00 0.00 0.00 67 1012.4
20260507165917 61 244 4.3 9.6 0.00 0.00 0.00 67 1012.4
20260507165813 61 234 3.5 9.6 0.00 0.00 0.00 67 1012.4
20260507165723 61 267 3.5 9.6 0.00 0.00 0.00 67 1012.4
20260507165615 61 248 5.2 9.6 0.00 0.00 0.00 67 1012.4
20260507165527 61 263 6.1 9.6 0.00 0.00 0.00 67 1012.4
20260507165419 61 215 6.1 9.6 0.00 0.00 0.00 66 1012.4
20260507165315 61 225 6.1 9.6 0.00 0.00 0.00 67 1012.4
20260507165227 61 187 6.1 9.6 0.00 0.00 0.00 66 1012.4
20260507165118 61 219 4.3 7.0 0.00 0.00 0.00 66 1012.4
20260507165031 61 190 3.5 7.0 0.00 0.00 0.00 68 1012.4
20260507164923 61 234 2.6 6.1 0.00 0.00 0.00 68 1012.4
20260507164819 61 207 1.7 8.7 0.00 0.00 0.00 68 1012.4
20260507164731 61 206 0.9 9.6 0.00 0.00 0.00 67 1012.4
20260507164624 62 205 1.7 9.6 0.00 0.00 0.00 67 1012.4
20260507164516 62 206 2.6 9.6 0.00 0.00 0.00 66 1012.4
20260507164427 62 206 2.6 9.6 0.00 0.00 0.00 65 1012.4
20260507164341 62 196 3.5 9.6 0.00 0.00 0.00 64 1012.4
20260507164232 62 263 4.3 9.6 0.00 0.00 0.00 64 1012.4
20260507164123 62 275 4.3 9.6 0.00 0.00 0.00 64 1012.4
20260507164015 62 271 5.2 13.0 0.00 0.00 0.00 64 1012.4
20260507163927 62 277 7.0 13.0 0.00 0.00 0.00 64 1012.4
20260507163822 62 238 7.0 13.0 0.00 0.00 0.00 64 1012.4
20260507163734 62 218 6.1 13.0 0.00 0.00 0.00 63 1012.4
20260507163624 62 210 6.1 13.0 0.00 0.00 0.00 63 1012.4
20260507163517 62 231 5.2 13.0 0.00 0.00 0.00 63 1012.4
20260507163429 62 244 4.3 13.0 0.00 0.00 0.00 63 1012.4
20260507163342 62 254 5.2 13.0 0.00 0.00 0.00 63 1012.4
20260507163216 62 213 6.1 13.0 0.00 0.00 0.00 63 1012.4
20260507163148 63 240 6.1 13.0 0.00 0.00 0.00 62 1012.4
20260507163018 63 234 5.2 12.2 0.00 0.00 0.00 62 1012.5
20260507162950 63 259 5.2 12.2 0.00 0.00 0.00 62 1012.4
20260507162821 63 229 5.2 12.2 0.00 0.00 0.00 62 1012.4
20260507162713 63 184 5.2 12.2 0.00 0.00 0.00 61 1012.4
20260507162645 63 165 6.1 12.2 0.00 0.00 0.00 61 1012.4
20260507162520 63 232 5.2 12.2 0.00 0.00 0.00 62 1012.4
20260507162452 63 227 5.2 8.7 0.00 0.00 0.00 62 1012.4
20260507162344 63 254 6.1 8.7 0.00 0.00 0.00 62 1012.4
20260507162232 63 229 6.1 9.6 0.00 0.00 0.00 61 1012.3
20260507162125 63 188 5.2 8.7 0.00 0.00 0.00 61 1012.3
20260507162014 63 216 4.3 9.6 0.00 0.00 0.00 61 1012.3
20260507161930 63 191 5.2 9.6 0.00 0.00 0.00 61 1012.3
20260507161842 63 248 5.2 9.6 0.00 0.00 0.00 61 1012.4
20260507161712 63 223 4.3 9.6 0.00 0.00 0.00 61 1012.4
20260507161625 63 187 3.5 9.6 0.00 0.00 0.00 61 1012.4
20260507161516 63 187 4.3 13.0 0.00 0.00 0.00 61 1012.3
20260507161448 63 220 5.2 13.0 0.00 0.00 0.00 61 1012.3
20260507161343 63 219 5.2 13.0 0.00 0.00 0.00 61 1012.3
20260507161251 63 220 6.1 13.0 0.00 0.00 0.00 61 1012.4
20260507161120 63 184 6.1 13.0 0.00 0.00 0.00 61 1012.3
20260507161052 63 190 5.2 13.0 0.00 0.00 0.00 60 1012.3
20260507160942 63 200 4.3 13.0 0.00 0.00 0.00 61 1012.3
20260507160852 63 189 4.3 13.0 0.00 0.00 0.00 61 1012.3
20260507160722 63 208 6.1 13.0 0.00 0.00 0.00 60 1012.3
20260507160618 63 239 7.8 12.2 0.00 0.00 0.00 60 1012.2
20260507160529 63 186 7.0 12.2 0.00 0.00 0.00 60 1012.2
20260507160422 63 188 7.8 12.2 0.00 0.00 0.00 60 1012.2
20260507160353 63 180 7.0 12.2 0.00 0.00 0.00 60 1012.2
20260507160223 63 205 7.0 12.2 0.00 0.00 0.00 60 1012.3
20260507160120 63 193 7.0 14.8 0.00 0.00 0.00 59 1012.3
20260507160030 63 186 7.0 14.8 0.00 0.00 0.00 59 1012.3
20260507155922 63 225 6.1 14.8 0.00 0.00 0.00 59 1012.3
20260507155813 63 227 6.1 14.8 0.00 0.00 0.00 59 1012.3
20260507155724 63 184 6.1 14.8 0.00 0.00 0.00 59 1012.3
20260507155635 63 196 5.2 14.8 0.00 0.00 0.00 59 1012.3
20260507155531 63 218 5.2 14.8 0.00 0.00 0.00 59 1012.3
20260507155423 63 182 7.0 14.8 0.00 0.00 0.00 59 1012.3
20260507155315 63 203 9.6 14.8 0.00 0.00 0.00 59 1012.3
20260507155226 63 188 9.6 14.8 0.00 0.00 0.00 58 1012.3
20260507155139 63 189 8.7 13.9 0.00 0.00 0.00 58 1012.2
20260507155049 63 187 8.7 13.9 0.00 0.00 0.00 58 1012.3
20260507154944 63 201 7.0 13.9 0.00 0.00 0.00 58 1012.2
20260507154816 63 188 7.0 13.9 0.00 0.00 0.00 59 1012.2
20260507154727 63 219 8.7 13.9 0.00 0.00 0.00 58 1012.2
20260507154617 63 190 9.6 13.9 0.00 0.00 0.00 58 1012.2
20260507154529 63 163 7.8 13.9 0.00 0.00 0.00 57 1012.2
20260507154445 64 196 7.0 11.3 0.00 0.00 0.00 58 1012.1
20260507053616 50 178 1.7 6.1 0.00 0.00 0.00 93 1012.8
20260507053512 50 178 1.7 6.1 0.00 0.00 0.00 93 1012.7
20260507053424 50 178 1.7 7.0 0.00 0.00 0.00 93 1012.7
20260507053316 50 178 2.6 7.0 0.00 0.00 0.00 93 1012.7
20260507053228 50 178 2.6 7.0 0.00 0.00 0.00 93 1012.7
20260507053120 50 178 2.6 7.0 0.00 0.00 0.00 93 1012.7
20260507053032 50 182 2.6 7.0 0.00 0.00 0.00 93 1012.7
20260507052948 50 182 2.6 7.0 0.00 0.00 0.00 93 1012.7
20260507052820 50 182 3.5 7.0 0.00 0.00 0.00 93 1012.6
20260507052752 50 185 3.5 7.0 0.00 0.00 0.00 93 1012.7
20260507052624 50 180 3.5 7.0 0.00 0.00 0.00 93 1012.6
20260507052535 50 180 4.3 7.0 0.00 0.00 0.00 93 1012.6
20260507052445 50 180 4.3 7.0 0.00 0.00 0.00 93 1012.6
20260507052315 50 180 3.5 6.1 0.00 0.00 0.00 93 1012.7
20260507052231 50 180 4.3 6.1 0.00 0.00 0.00 93 1012.7
20260507052123 50 173 4.3 6.1 0.00 0.00 0.00 93 1012.7
20260507052015 50 172 3.5 6.1 0.00 0.00 0.00 93 1012.6
20260507051927 50 184 2.6 4.3 0.00 0.00 0.00 93 1012.6
20260507051819 50 190 2.6 6.1 0.00 0.00 0.00 93 1012.6
20260507051735 50 190 2.6 6.1 0.00 0.00 0.00 93 1012.6
20260507051626 50 190 2.6 6.1 0.00 0.00 0.00 93 1012.6
20260507051519 50 190 0.9 6.1 0.00 0.00 0.00 93 1012.6
20260507051451 50 190 0.9 6.1 0.00 0.00 0.00 93 1012.6
20260507051322 50 191 0.9 6.1 0.00 0.00 0.00 93 1012.5
20260507051214 50 190 0.9 8.7 0.00 0.00 0.00 93 1012.6
20260507051131 50 190 1.7 8.7 0.00 0.00 0.00 93 1012.6
20260507051044 50 190 3.5 8.7 0.00 0.00 0.00 93 1012.5
20260507050915 50 192 3.5 8.7 0.00 0.00 0.00 93 1012.4
20260507050824 50 238 2.6 8.7 0.00 0.00 0.00 93 1012.4
20260507050717 50 192 1.7 8.7 0.00 0.00 0.00 93 1012.4
20260507050628 50 192 1.7 8.7 0.00 0.00 0.00 93 1012.4
20260507050524 50 192 1.7 8.7 0.00 0.00 0.00 93 1012.4
20260507050415 50 221 4.3 8.7 0.00 0.00 0.00 93 1012.4
20260507050348 50 239 5.2 8.7 0.00 0.00 0.00 93 1012.4
20260507050220 50 190 4.3 9.6 0.00 0.00 0.00 93 1012.4
20260507050153 50 109 2.6 6.1 0.00 0.00 0.00 93 1012.3
20260507050022 50 179 2.6 6.1 0.00 0.00 0.00 93 1012.3
20260507045917 50 179 3.5 6.1 0.00 0.00 0.00 93 1012.3
20260507045830 50 184 3.5 6.1 0.00 0.00 0.00 93 1012.4
20260507045722 50 184 3.5 6.1 0.00 0.00 0.00 93 1012.3
20260507045613 50 166 3.5 6.1 0.00 0.00 0.00 93 1012.3
20260507045525 50 158 3.5 6.1 0.00 0.00 0.00 93 1012.3
20260507045421 49 178 3.5 7.0 0.00 0.00 0.00 93 1012.2
20260507045333 49 178 2.6 7.0 0.00 0.00 0.00 93 1012.2
20260507045246 49 121 2.6 6.1 0.00 0.00 0.00 93 1012.2
20260507045115 49 153 1.7 6.1 0.00 0.00 0.00 93 1012.2
20260507045047 49 151 1.7 6.1 0.00 0.00 0.00 93 1012.2
20260507044918 49 142 1.7 3.5 0.00 0.00 0.00 93 1012.2
20260507044851 49 141 1.7 5.2 0.00 0.00 0.00 93 1012.2
20260507044726 49 119 1.7 5.2 0.00 0.00 0.00 93 1012.2
20260507044617 49 117 0.9 5.2 0.00 0.00 0.00 93 1012.2
20260507044529 49 117 0.9 5.2 0.00 0.00 0.00 93 1012.2
20260507044421 49 117 0.9 5.2 0.00 0.00 0.00 93 1012.2
20260507044312 49 117 0.9 5.2 0.00 0.00 0.00 93 1012.2
20260507044228 49 117 0.9 5.2 0.00 0.00 0.00 93 1012.2
20260507044140 49 117 0.9 5.2 0.00 0.00 0.00 93 1012.2
20260507044031 49 117 1.7 5.2 0.00 0.00 0.00 93 1012.2
20260507043922 49 117 2.6 5.2 0.00 0.00 0.00 93 1012.2
20260507043814 49 115 1.7 3.5 0.00 0.00 0.00 93 1012.2
20260507043725 49 121 0.9 3.5 0.00 0.00 0.00 93 1012.2
20260507043636 49 121 0.9 6.1 0.00 0.00 0.00 93 1012.2
20260507043552 49 121 0.9 6.1 0.00 0.00 0.00 93 1012.2
20260507043423 49 121 0.9 6.1 0.00 0.00 0.00 93 1012.2
20260507043315 49 121 1.7 6.1 0.00 0.00 0.00 93 1012.1
20260507043228 49 121 1.7 6.1 0.00 0.00 0.00 93 1012.1
20260507043121 49 121 1.7 6.1 0.00 0.00 0.00 93 1012.2
20260507043036 49 121 0.9 6.1 0.00 0.00 0.00 93 1012.1
20260507042928 49 119 1.7 6.1 0.00 0.00 0.00 93 1012.1
20260507042821 49 119 2.6 6.1 0.00 0.00 0.00 93 1012.1
20260507042713 49 119 3.5 6.1 0.00 0.00 0.00 93 1012.1
20260507042645 49 119 3.5 6.1 0.00 0.00 0.00 93 1012.1
20260507042516 49 119 2.6 5.2 0.00 0.00 0.00 93 1012.1
20260507042433 49 125 1.7 7.0 0.00 0.00 0.00 93 1012.1
20260507042324 49 123 2.6 7.8 0.00 0.00 0.00 93 1012.1
20260507042217 50 123 3.5 8.7 0.00 0.00 0.00 93 1012.0
20260507042128 50 123 2.6 8.7 0.00 0.00 0.00 93 1012.1
20260507042020 50 169 2.6 8.7 0.00 0.00 0.00 93 1012.1
20260507041917 50 169 2.6 8.7 0.00 0.00 0.00 93 1012.1
20260507041829 50 169 2.6 8.7 0.00 0.00 0.00 93 1012.1
20260507041741 50 169 3.5 8.7 0.00 0.00 0.00 93 1012.1
20260507041633 50 171 4.3 8.7 0.00 0.00 0.00 93 1012.0
20260507041524 50 186 5.2 8.7 0.00 0.00 0.00 93 1012.0
20260507041416 50 186 6.1 8.7 0.00 0.00 0.00 93 1012.0
20260507041312 50 188 5.2 8.7 0.00 0.00 0.00 93 1012.1
20260507041224 50 178 4.3 6.1 0.00 0.00 0.00 93 1012.1
20260507041117 50 179 3.5 6.1 0.00 0.00 0.00 93 1012.0
20260507041028 50 179 3.5 6.1 0.00 0.00 0.00 93 1012.0
20260507040923 50 179 2.6 6.1 0.00 0.00 0.00 93 1012.0
20260506234428 52 188 4.3 9.6 0.00 0.00 0.00 92 1012.2
20260506234321 52 185 2.6 5.2 0.00 0.00 0.00 92 1012.2
20260506234213 52 188 2.6 4.3 0.00 0.00 0.00 92 1012.1
20260506234127 52 188 2.6 7.0 0.00 0.00 0.00 92 1012.1
20260506234020 52 190 1.7 7.0 0.00 0.00 0.00 92 1012.1
20260506233916 52 190 1.7 7.8 0.00 0.00 0.00 92 1012.1
20260506233829 52 190 2.6 7.8 0.00 0.00 0.00 92 1012.0
20260506233721 52 190 2.6 7.8 0.00 0.00 0.00 92 1012.0
20260506233613 52 190 2.6 7.8 0.00 0.00 0.00 92 1012.1
20260506233524 52 190 2.6 7.8 0.00 0.00 0.00 92 1012.1
20260506233420 52 205 1.7 7.8 0.00 0.00 0.00 92 1012.1
20260506233353 52 205 2.6 7.8 0.00 0.00 0.00 92 1012.1
20260506233224 52 211 3.5 7.8 0.00 0.00 0.00 93 1012.1
20260506233116 52 211 5.2 7.8 0.00 0.00 0.00 93 1012.1
20260506233050 52 212 4.3 7.8 0.00 0.00 0.00 93 1012.1
20260506232921 52 186 4.3 7.8 0.00 0.00 0.00 92 1012.1
20260506232836 52 192 3.5 7.8 0.00 0.00 0.00 92 1012.1
20260506232727 52 192 3.5 7.8 0.00 0.00 0.00 92 1012.1
20260506232618 51 191 3.5 7.8 0.00 0.00 0.00 93 1012.1
20260506232531 51 244 3.5 7.8 0.00 0.00 0.00 93 1012.1
20260506232422 51 263 2.6 7.8 0.00 0.00 0.00 93 1012.1
20260506232314 51 250 2.6 7.8 0.00 0.00 0.00 93 1012.1
20260506232246 51 250 3.5 7.8 0.00 0.00 0.00 93 1012.1
20260506232122 51 250 3.5 7.8 0.00 0.00 0.00 92 1012.2
20260506232015 51 211 2.6 9.6 0.00 0.00 0.00 92 1012.1
20260506231927 51 210 3.5 9.6 0.00 0.00 0.00 92 1012.1
20260506231820 51 276 3.5 9.6 0.00 0.00 0.00 92 1012.2
20260506231717 51 279 3.5 9.6 0.00 0.00 0.00 92 1012.1
20260506231630 51 242 2.6 9.6 0.00 0.00 0.00 92 1012.1
20260506231524 51 244 3.5 9.6 0.00 0.00 0.00 92 1012.1
20260506231416 51 234 4.3 9.6 0.00 0.00 0.00 92 1012.2
20260506231328 51 236 5.2 9.6 0.00 0.00 0.00 92 1012.2
20260506231224 51 261 6.1 9.6 0.00 0.00 0.00 92 1012.2
20260506231116 51 225 5.2 9.6 0.00 0.00 0.00 93 1012.2
20260506231028 51 205 4.3 9.6 0.00 0.00 0.00 93 1012.2
20260506230920 51 211 2.6 9.6 0.00 0.00 0.00 93 1012.2
20260506230852 51 216 3.5 9.6 0.00 0.00 0.00 92 1012.2
20260506230744 51 213 3.5 9.6 0.00 0.00 0.00 92 1012.3
20260506230639 51 236 3.5 9.6 0.00 0.00 0.00 92 1012.3
20260506230531 51 215 3.5 9.6 0.00 0.00 0.00 92 1012.3
20260506230423 51 244 5.2 9.6 0.00 0.00 0.00 92 1012.3
20260506230316 51 249 7.0 9.6 0.00 0.00 0.00 92 1012.3
20260506230228 52 236 7.0 9.6 0.00 0.00 0.00 92 1012.3
20260506230125 52 227 6.1 8.7 0.00 0.00 0.00 92 1012.3
20260506230016 52 221 6.1 8.7 0.00 0.00 0.00 92 1012.3
20260506225928 52 207 7.0 8.7 0.00 0.00 0.00 92 1012.3
20260506225820 52 194 6.1 9.6 0.00 0.00 0.00 92 1012.2
20260506225752 52 212 5.2 9.6 0.00 0.00 0.00 92 1012.2
20260506225623 52 228 5.2 9.6 0.00 0.00 0.00 92 1012.2
20260506225520 52 221 6.1 9.6 0.00 0.00 0.00 92 1012.2
20260506225412 52 194 7.0 9.6 0.00 0.00 0.00 92 1012.1
20260506225346 52 219 6.1 9.6 0.00 0.00 0.00 92 1012.1
20260506225217 52 203 5.2 7.8 0.00 0.00 0.00 92 1012.1
20260506225129 52 197 4.3 7.8 0.00 0.00 0.00 92 1012.2
20260506225026 52 210 5.2 7.8 0.00 0.00 0.00 92 1012.1
20260506224919 52 180 4.3 7.0 0.00 0.00 0.00 92 1012.1
20260506224851 53 178 3.5 7.0 0.00 0.00 0.00 92 1012.1
20260506224722 53 182 2.6 6.1 0.00 0.00 0.00 92 1012.0
20260506224615 53 186 1.7 4.3 0.00 0.00 0.00 92 1012.1
20260506224532 53 186 1.7 4.3 0.00 0.00 0.00 92 1012.1
20260506224424 53 186 1.7 5.2 0.00 0.00 0.00 93 1012.0
20260506224337 53 186 2.6 7.0 0.00 0.00 0.00 92 1012.0
20260506224228 53 185 2.6 7.0 0.00 0.00 0.00 92 1012.0
20260506224119 53 188 2.6 7.0 0.00 0.00 0.00 92 1012.0
20260506224015 53 201 1.7 7.8 0.00 0.00 0.00 92 1012.1
20260506223926 53 202 1.7 7.8 0.00 0.00 0.00 93 1012.1
20260506223818 53 202 2.6 7.8 0.00 0.00 0.00 93 1012.1
20260506223730 53 202 2.6 7.8 0.00 0.00 0.00 93 1012.1
20260506223642 53 209 3.5 7.8 0.00 0.00 0.00 93 1012.0
20260506223516 53 209 3.5 7.8 0.00 0.00 0.00 93 1012.1
20260506223412 53 210 4.3 7.8 0.00 0.00 0.00 93 1012.1
20260506223325 53 198 4.3 7.8 0.00 0.00 0.00 93 1012.1
20260506223215 52 186 3.5 7.8 0.00 0.00 0.00 93 1012.0
20260506223127 52 212 3.5 7.8 0.00 0.00 0.00 93 1012.0
20260506223041 52 215 3.5 7.8 0.00 0.00 0.00 93 1012.0
20260506222931 52 191 2.6 7.0 0.00 0.00 0.00 93 1012.0
20260506222827 52 269 2.6 7.0 0.00 0.00 0.00 93 1012.0
20260506222719 52 272 3.5 7.0 0.00 0.00 0.00 93 1012.0
20260506222632 52 265 3.5 7.0 0.00 0.00 0.00 93 1012.0
20260506222524 52 262 3.5 7.0 0.00 0.00 0.00 93 1012.0
20260506222414 52 261 3.5 7.0 0.00 0.00 0.00 93 1012.1
20260506222326 52 240 3.5 8.7 0.00 0.00 0.00 93 1012.1
20260506222243 52 243 4.3 8.7 0.00 0.00 0.00 93 1012.1
20260506222114 51 257 4.3 8.7 0.00 0.00 0.00 93 1012.1
20260506222027 51 223 4.3 8.7 0.00 0.00 0.00 93 1012.1
20260506221919 51 217 4.3 8.7 0.00 0.00 0.00 93 1012.2
20260506221812 51 198 3.5 8.7 0.00 0.00 0.00 93 1012.2
20260506221729 51 189 3.5 10.4 0.00 0.00 0.00 93 1012.2
20260506221642 51 189 4.3 10.4 0.00 0.00 0.00 93 1012.2
20260506221513 51 246 5.2 10.4 0.00 0.00 0.00 93 1012.2
20260506221424 51 255 5.2 10.4 0.00 0.00 0.00 93 1012.2
20260506221316 51 250 4.3 10.4 0.00 0.00 0.00 93 1012.2
20260506221226 51 245 4.3 10.4 0.00 0.00 0.00 93 1012.2
20260506221143 52 204 5.2 10.4 0.00 0.00 0.00 93 1012.2
20260506221016 52 225 5.2 10.4 0.00 0.00 0.00 93 1012.2
20260506220928 52 221 6.1 10.4 0.00 0.00 0.00 93 1012.2
20260506220821 52 188 6.1 10.4 0.00 0.00 0.00 93 1012.2
20260506220713 52 182 5.2 10.4 0.00 0.00 0.00 92 1012.2
20260506220646 52 227 5.2 8.7 0.00 0.00 0.00 92 1012.2
20260506220521 52 227 5.2 8.7 0.00 0.00 0.00 92 1012.2
20260506220437 52 215 5.2 10.4 0.00 0.00 0.00 93 1012.2
20260506220326 52 183 5.2 10.4 0.00 0.00 0.00 93 1012.2
20260506220218 52 211 5.2 10.4 0.00 0.00 0.00 93 1012.2
20260506220131 52 218 5.2 10.4 0.00 0.00 0.00 93 1012.2
20260506220024 52 218 3.5 10.4 0.00 0.00 0.00 93 1012.2
20260506215916 52 205 5.2 10.4 0.00 0.00 0.00 93 1012.2
20260506215812 52 207 7.0 10.4 0.00 0.00 0.00 93 1012.2
20260506215725 52 206 7.8 10.4 0.00 0.00 0.00 93 1012.2
20260506215617 52 244 7.8 10.4 0.00 0.00 0.00 93 1012.2
20260506215529 52 225 7.0 10.4 0.00 0.00 0.00 93 1012.2
20260506215420 52 228 4.3 8.7 0.00 0.00 0.00 93 1012.2
20260506215335 52 211 5.2 8.7 0.00 0.00 0.00 93 1012.1
20260506215226 52 201 5.2 8.7 0.00 0.00 0.00 93 1012.1
20260506215136 52 198 5.2 8.7 0.00 0.00 0.00 93 1012.1
20260506215028 52 209 5.2 8.7 0.00 0.00 0.00 93 1012.1
20260506214920 52 226 5.2 8.7 0.00 0.00 0.00 93 1012.1
20260506214813 52 171 5.2 8.7 0.00 0.00 0.00 92 1012.1
20260506214729 52 221 4.3 9.6 0.00 0.00 0.00 92 1012.1
20260506214641 52 208 5.2 9.6 0.00 0.00 0.00 92 1012.1
20260506214512 52 189 5.2 9.6 0.00 0.00 0.00 92 1012.1
20260506214425 52 204 6.1 10.4 0.00 0.00 0.00 92 1012.1
20260506214317 52 186 5.2 10.4 0.00 0.00 0.00 92 1012.0
20260506214213 52 198 5.2 10.4 0.00 0.00 0.00 92 1012.0
20260506214126 52 215 4.3 10.4 0.00 0.00 0.00 92 1012.0
20260506214040 52 182 3.5 10.4 0.00 0.00 0.00 92 1012.0
20260506213932 52 188 3.5 10.4 0.00 0.00 0.00 92 1012.0
20260506213824 52 199 4.3 10.4 0.00 0.00 0.00 92 1012.0
20260506213720 52 184 4.3 10.4 0.00 0.00 0.00 92 1012.0
20260506213632 53 178 5.2 10.4 0.00 0.00 0.00 92 1012.1
20260506213523 52 186 5.2 10.4 0.00 0.00 0.00 92 1012.0
20260506213415 53 182 3.5 7.8 0.00 0.00 0.00 92 1012.0
20260506213348 53 182 2.6 7.8 0.00 0.00 0.00 92 1012.0
20260506213220 53 182 3.5 7.8 0.00 0.00 0.00 92 1012.0
20260506213117 53 182 4.3 7.8 0.00 0.00 0.00 92 1012.0
20260506213030 53 182 4.3 7.8 0.00 0.00 0.00 92 1012.0
20260506212922 53 214 4.3 7.8 0.00 0.00 0.00 92 1012.0
20260506212814 53 190 3.5 7.8 0.00 0.00 0.00 92 1012.0
20260506212747 53 182 3.5 6.1 0.00 0.00 0.00 92 1012.0
20260506212619 53 182 3.5 6.1 0.00 0.00 0.00 92 1012.0
20260506212514 53 198 3.5 6.1 0.00 0.00 0.00 92 1012.0
20260506212447 53 207 3.5 6.1 0.00 0.00 0.00 92 1012.0
20260506212318 53 186 4.3 7.8 0.00 0.00 0.00 92 1012.0
20260506212230 53 171 4.3 7.8 0.00 0.00 0.00 92 1012.0
20260506212122 53 173 5.2 7.8 0.00 0.00 0.00 92 1012.0
20260506212020 53 166 4.3 7.8 0.00 0.00 0.00 92 1012.0
20260506211952 53 169 4.3 7.8 0.00 0.00 0.00 92 1012.0
20260506211824 53 169 3.5 7.8 0.00 0.00 0.00 92 1012.0
20260506211717 53 179 2.6 7.8 0.00 0.00 0.00 92 1012.0
20260506211630 53 179 3.5 7.8 0.00 0.00 0.00 92 1012.0
20260506211527 53 178 3.5 7.8 0.00 0.00 0.00 92 1012.0
20260506211419 53 178 4.3 7.8 0.00 0.00 0.00 92 1012.0
20260506211313 53 187 4.3 7.0 0.00 0.00 0.00 92 1012.0
20260506211244 53 186 4.3 7.0 0.00 0.00 0.00 92 1012.0
20260506211116 53 186 4.3 7.0 0.00 0.00 0.00 92 1012.0
20260506211027 53 192 2.6 7.0 0.00 0.00 0.00 92 1012.0
20260506210923 53 168 2.6 6.1 0.00 0.00 0.00 92 1012.0
20260506210814 53 169 3.5 6.1 0.00 0.00 0.00 92 1011.9
20260506210725 53 165 3.5 6.1 0.00 0.00 0.00 92 1011.9
20260506210616 53 188 2.6 6.1 0.00 0.00 0.00 92 1012.0
20260506210530 53 189 2.6 6.1 0.00 0.00 0.00 92 1012.0
20260506210421 54 205 1.7 6.1 0.00 0.00 0.00 92 1012.0
20260506210316 53 164 1.7 8.7 0.00 0.00 0.00 92 1011.9
20260506210228 53 155 1.7 8.7 0.00 0.00 0.00 92 1011.9
20260506210121 53 158 2.6 8.7 0.00 0.00 0.00 92 1012.0
20260506210012 53 157 2.6 8.7 0.00 0.00 0.00 92 1012.0
20260506205924 54 185 2.6 8.7 0.00 0.00 0.00 92 1012.0
20260506205840 54 189 1.7 8.7 0.00 0.00 0.00 92 1012.0
20260506205732 54 189 1.7 8.7 0.00 0.00 0.00 92 1011.9
20260506205624 54 189 1.7 8.7 0.00 0.00 0.00 92 1012.0
20260506205518 54 205 3.5 8.7 0.00 0.00 0.00 92 1012.0
20260506205429 54 203 4.3 8.7 0.00 0.00 0.00 92 1012.0
20260506205321 54 215 2.6 7.0 0.00 0.00 0.00 92 1011.9
20260506205215 54 171 0.9 6.1 0.00 0.00 0.00 92 1011.9
20260506205125 54 151 0.0 6.1 0.00 0.00 0.00 91 1011.9
20260506205017 54 152 0.9 7.0 0.00 0.00 0.00 91 1011.9
20260506204928 54 152 0.9 7.0 0.00 0.00 0.00 91 1011.9
20260506204818 54 105 1.7 10.4 0.00 0.00 0.00 91 1012.0
20260506204729 54 165 1.7 10.4 0.00 0.00 0.00 91 1012.0
20260506204626 54 165 1.7 10.4 0.00 0.00 0.00 91 1011.9
20260506204536 54 180 0.9 10.4 0.00 0.00 0.00 91 1011.9
20260506204447 54 180 0.9 10.4 0.00 0.00 0.00 91 1011.9
20260506204229 54 180 4.3 10.4 0.00 0.00 0.00 91 1011.9
20260506204122 54 170 4.3 10.4 0.00 0.00 0.00 91 1011.9
20260506204014 54 170 4.3 10.4 0.00 0.00 0.00 91 1011.8
20260506203930 54 184 4.3 10.4 0.00 0.00 0.00 91 1011.8
20260506203823 54 186 5.2 10.4 0.00 0.00 0.00 91 1011.8
20260506203715 54 186 3.5 9.6 0.00 0.00 0.00 90 1011.8
20260506203628 54 192 3.5 10.4 0.00 0.00 0.00 90 1011.8
20260506203521 54 257 4.3 10.4 0.00 0.00 0.00 90 1011.9
20260506203437 54 259 6.1 10.4 0.00 0.00 0.00 90 1011.9
20260506203328 54 190 6.1 10.4 0.00 0.00 0.00 90 1011.9
20260506203220 54 184 3.5 10.4 0.00 0.00 0.00 90 1011.9
20260506203113 54 220 3.5 10.4 0.00 0.00 0.00 90 1011.8
20260506203046 54 220 4.3 10.4 0.00 0.00 0.00 90 1011.8
20260506202936 54 226 6.1 10.4 0.00 0.00 0.00 90 1011.8
20260506202831 54 215 6.1 10.4 0.00 0.00 0.00 89 1011.8
20260506202721 54 204 7.0 10.4 0.00 0.00 0.00 89 1011.8
20260506202613 54 187 5.2 9.6 0.00 0.00 0.00 89 1011.7
20260506202527 54 188 5.2 10.4 0.00 0.00 0.00 89 1011.7
20260506202419 54 190 6.1 10.4 0.00 0.00 0.00 89 1011.7
20260506202315 54 224 7.0 10.4 0.00 0.00 0.00 89 1011.7
20260506202228 54 182 6.1 11.3 0.00 0.00 0.00 89 1011.7
20260506202121 54 186 4.3 8.7 0.00 0.00 0.00 89 1011.7
20260506202013 54 186 4.3 8.7 0.00 0.00 0.00 89 1011.7
20260506201926 54 198 4.3 8.7 0.00 0.00 0.00 89 1011.7
20260506201823 54 224 5.2 8.7 0.00 0.00 0.00 89 1011.7
20260506201715 54 202 4.3 9.6 0.00 0.00 0.00 89 1011.7
20260506201628 54 213 3.5 9.6 0.00 0.00 0.00 89 1011.7
20260506201521 54 190 3.5 9.6 0.00 0.00 0.00 89 1011.7
20260506201413 55 190 4.3 9.6 0.00 0.00 0.00 88 1011.6
20260506201330 55 225 4.3 9.6 0.00 0.00 0.00 89 1011.6
20260506201219 55 206 4.3 9.6 0.00 0.00 0.00 89 1011.7
20260506201152 55 244 5.2 9.6 0.00 0.00 0.00 88 1011.6
20260506201023 55 182 5.2 9.6 0.00 0.00 0.00 88 1011.6
20260506200934 55 187 6.1 9.6 0.00 0.00 0.00 88 1011.6
20260506200826 55 209 7.0 9.6 0.00 0.00 0.00 88 1011.6
20260506200722 55 207 6.1 8.7 0.00 0.00 0.00 88 1011.6
20260506200614 55 201 6.1 9.6 0.00 0.00 0.00 88 1011.5
20260506200528 55 206 6.1 9.6 0.00 0.00 0.00 88 1011.5
20260506200440 55 229 6.1 9.6 0.00 0.00 0.00 88 1011.5
20260506200331 55 206 6.1 9.6 0.00 0.00 0.00 88 1011.5
20260506200223 55 228 6.1 9.6 0.00 0.00 0.00 88 1011.5
20260506200120 55 202 5.2 12.2 0.00 0.00 0.00 88 1011.5
20260506200030 55 223 6.1 12.2 0.00 0.00 0.00 88 1011.5
20260506195922 55 221 6.1 12.2 0.00 0.00 0.00 88 1011.4
20260506195834 55 182 5.2 12.2 0.00 0.00 0.00 88 1011.4
20260506195725 55 209 6.1 12.2 0.00 0.00 0.00 88 1011.4
20260506195623 55 209 7.0 12.2 0.00 0.00 0.00 88 1011.4
20260506195515 55 213 7.8 12.2 0.00 0.00 0.00 88 1011.4
20260506195448 55 208 7.0 12.2 0.00 0.00 0.00 88 1011.4
20260506195319 55 209 7.0 12.2 0.00 0.00 0.00 88 1011.4
20260506195230 55 186 7.0 12.2 0.00 0.00 0.00 88 1011.4
20260506195120 55 212 7.8 12.2 0.00 0.00 0.00 88 1011.4
20260506195016 55 211 7.8 12.2 0.00 0.00 0.00 88 1011.3
20260506194947 55 228 7.0 12.2 0.00 0.00 0.00 88 1011.3
20260506194817 55 211 7.0 12.2 0.00 0.00 0.00 88 1011.3
20260506194726 55 212 7.8 12.2 0.00 0.00 0.00 88 1011.3
20260506194620 55 229 8.7 12.2 0.00 0.00 0.00 88 1011.4
20260506194512 55 184 7.8 12.2 0.00 0.00 0.00 88 1011.3
20260506194425 55 182 8.7 13.0 0.00 0.00 0.00 88 1011.3
20260506194322 55 178 7.8 11.3 0.00 0.00 0.00 88 1011.3
20260506194214 55 186 7.8 11.3 0.00 0.00 0.00 88 1011.2
20260506194125 55 230 7.0 10.4 0.00 0.00 0.00 88 1011.2
20260506194019 55 168 6.1 8.7 0.00 0.00 0.00 88 1011.3
20260506193931 55 181 6.1 8.7 0.00 0.00 0.00 88 1011.3
20260506193828 55 217 7.0 8.7 0.00 0.00 0.00 88 1011.2
20260506193721 55 194 6.1 11.3 0.00 0.00 0.00 88 1011.2
20260506193613 55 167 3.5 9.6 0.00 0.00 0.00 88 1011.1
20260506193527 55 184 4.3 9.6 0.00 0.00 0.00 88 1011.1
20260506193419 55 208 4.3 9.6 0.00 0.00 0.00 88 1011.1
20260506193315 55 189 5.2 9.6 0.00 0.00 0.00 88 1011.0
20260506193226 55 202 5.2 9.6 0.00 0.00 0.00 88 1011.0
20260506193119 55 210 5.2 9.6 0.00 0.00 0.00 88 1011.0
20260506193052 55 183 6.1 9.6 0.00 0.00 0.00 88 1011.0
20260506192923 55 188 5.2 8.7 0.00 0.00 0.00 88 1011.0
20260506192819 55 221 5.2 8.7 0.00 0.00 0.00 87 1011.0